Find Starlink 4103

NORAD ID: 53141 Int'l Des: 2022-083 Owner: SPXS Country: US Constellation: starlink operational
LEOCIRCULAR

Live Position

Loading 3D Globe...

About Starlink 4103

Description loading...

Upcoming Passes

Passes for default location (London). Set your location on the main map for personalized predictions.

Altitude History

Loading altitude history...

Two-Line Element Set

1 53141U 22083K 26122.16720190 .00005739 00000-0 37824-3 0 9999
2 53141 53.2160 294.0508 0001518 88.8970 271.2196 15.08851493209290
Epoch: May 2, 2026 • Age: 12 hours

Current Status

Altitude 550.0 km
Velocity 7.59 km/s
Sub-Earth Point -31.33°S, 36.42°E
Launch Date Jul 17, 2022
Age 3.7 years
Type internet

Technical Details

Classification Payload
Mass 297.00 kg
Dry Mass 275.00 kg
Total Mass 297.00 kg
Length 0.20 m
Diameter 2.80 m
Span 9.00 m
Shape Box + pan
Manufacturer SPXS
Bus Type Starlink
Phase Status In Orbit
Owner/State SPXS/US

Most Searched